• Em Portugal
  • Lista de países
  • Para 7 dias
  • Temperatura da água
  • Mapas de satélite
  • Mapa do tempo
  • Widgets de tempo
  • user-avatar
    Iniciar Sessão

    Previsão horária em Skupshinino

    Hoje, 24 Setembro, Segunda-feira

    Tempo Temperatura Precipitação Vento Pressão Humidade
    00:00 +8°C° 0 mm 3 m/s 742 mmHg 89%
    01:00 +7°C° 0 mm 3 m/s 742 mmHg 89%
    02:00 +6°C° 0 mm 2 m/s 742 mmHg 93%
    03:00 +7°C° 0 mm 3 m/s 741 mmHg 91%
    04:00 +7°C° 0 mm 3 m/s 741 mmHg 89%
    05:00 +7°C° 0 mm 3 m/s 741 mmHg 87%
    06:00 +7°C° 0 mm 4 m/s 741 mmHg 83%
    07:00 +8°C° 0 mm 4 m/s 741 mmHg 80%
    08:00 +9°C° 0 mm 5 m/s 740 mmHg 75%
    09:00 +9°C° 0.4 mm 5 m/s 740 mmHg 76%
    10:00 +9°C° 0.4 mm 6 m/s 739 mmHg 77%
    11:00 +9°C° 0.4 mm 7 m/s 739 mmHg 78%
    12:00 +9°C° 0.8 mm 7 m/s 738 mmHg 80%
    13:00 +9°C° 0.8 mm 8 m/s 737 mmHg 81%
    14:00 +9°C° 0.8 mm 8 m/s 736 mmHg 83%
    15:00 +9°C° 1.3 mm 8 m/s 735 mmHg 85%
    16:00 +9°C° 1.3 mm 8 m/s 733 mmHg 86%
    17:00 +10°C° 1.3 mm 8 m/s 732 mmHg 87%
    18:00 +10°C° 0.5 mm 8 m/s 732 mmHg 87%
    19:00 +10°C° 0.5 mm 8 m/s 732 mmHg 87%
    20:00 +10°C° 0.5 mm 7 m/s 731 mmHg 88%
    21:00 +9°C° 0 mm 7 m/s 731 mmHg 87%
    22:00 +8°C° 0 mm 7 m/s 732 mmHg 87%
    23:00 +7°C° 0 mm 6 m/s 732 mmHg 86%

    Amanhã, 25 Setembro, Terça-feira

    Tempo Temperatura Precipitação Vento Pressão Humidade
    00:00 +7°C° 0 mm 6 m/s 732 mmHg 86%
    01:00 +6°C° 0 mm 7 m/s 733 mmHg 85%
    02:00 +6°C° 0 mm 7 m/s 733 mmHg 85%
    03:00 +6°C° 0 mm 7 m/s 733 mmHg 85%
    04:00 +7°C° 0 mm 6 m/s 734 mmHg 85%
    05:00 +7°C° 0 mm 6 m/s 734 mmHg 85%
    06:00 +7°C° 0 mm 6 m/s 734 mmHg 83%
    07:00 +7°C° 0 mm 6 m/s 735 mmHg 82%
    08:00 +7°C° 0 mm 6 m/s 736 mmHg 81%
    09:00 +6°C° 0.1 mm 7 m/s 736 mmHg 79%
    10:00 +6°C° 0.1 mm 7 m/s 737 mmHg 77%
    11:00 +6°C° 0.1 mm 7 m/s 738 mmHg 75%
    12:00 +6°C° 0.1 mm 7 m/s 738 mmHg 75%
    13:00 +6°C° 0.1 mm 7 m/s 739 mmHg 74%
    14:00 +6°C° 0.1 mm 7 m/s 740 mmHg 73%
    15:00 +7°C° 0 mm 6 m/s 740 mmHg 73%
    16:00 +7°C° 0 mm 5 m/s 741 mmHg 73%
    17:00 +7°C° 0 mm 5 m/s 741 mmHg 73%
    18:00 +7°C° 0 mm 5 m/s 742 mmHg 74%
    19:00 +6°C° 0 mm 4 m/s 743 mmHg 75%
    20:00 +6°C° 0 mm 4 m/s 743 mmHg 76%
    21:00 +6°C° 0 mm 4 m/s 744 mmHg 78%
    22:00 +5°C° 0 mm 4 m/s 744 mmHg 80%
    23:00 +4°C° 0 mm 4 m/s 745 mmHg 82%

    Depois de amanhã, 26 Setembro, Quarta-feira

    Tempo Temperatura Precipitação Vento Pressão Humidade
    00:00 +4°C° 0 mm 4 m/s 745 mmHg 83%
    01:00 +4°C° 0 mm 4 m/s 746 mmHg 84%
    02:00 +3°C° 0 mm 4 m/s 746 mmHg 85%
    03:00 +3°C° 0 mm 4 m/s 747 mmHg 85%
    04:00 +3°C° 0 mm 4 m/s 747 mmHg 86%
    05:00 +3°C° 0 mm 4 m/s 748 mmHg 86%
    06:00 +3°C° 0 mm 4 m/s 749 mmHg 82%
    07:00 +3°C° 0 mm 4 m/s 749 mmHg 77%
    08:00 +3°C° 0 mm 5 m/s 750 mmHg 72%
    09:00 +5°C° 0 mm 5 m/s 750 mmHg 66%
    10:00 +6°C° 0 mm 4 m/s 750 mmHg 59%
    11:00 +8°C° 0 mm 4 m/s 751 mmHg 53%
    12:00 +8°C° 0 mm 4 m/s 751 mmHg 51%
    13:00 +8°C° 0 mm 4 m/s 751 mmHg 49%
    14:00 +10°C° 0 mm 4 m/s 750 mmHg 46%
    15:00 +8°C° 0 mm 4 m/s 750 mmHg 52%
    16:00 +8°C° 0 mm 3 m/s 750 mmHg 57%
    17:00 +7°C° 0 mm 2 m/s 750 mmHg 62%
    18:00 +7°C° 0 mm 3 m/s 750 mmHg 65%
    19:00 +5°C° 0 mm 4 m/s 750 mmHg 67%
    20:00 +5°C° 0 mm 4 m/s 749 mmHg 70%
    21:00 +5°C° 0 mm 5 m/s 749 mmHg 70%
    22:00 +5°C° 0 mm 5 m/s 748 mmHg 69%
    23:00 +5°C° 0 mm 6 m/s 748 mmHg 69%

    27 Setembro, Quinta-feira

    Tempo Temperatura Precipitação Vento Pressão Humidade
    00:00 +5°C° 0.2 mm 6 m/s 747 mmHg 70%
    01:00 +5°C° 0.2 mm 7 m/s 746 mmHg 72%
    02:00 +5°C° 0.2 mm 7 m/s 745 mmHg 73%
    03:00 +4°C° 0.6 mm 8 m/s 744 mmHg 76%
    04:00 +4°C° 0.6 mm 8 m/s 743 mmHg 80%
    05:00 +3°C° 0.6 mm 9 m/s 743 mmHg 83%
    06:00 +5°C° 0.7 mm 9 m/s 742 mmHg 84%
    07:00 +5°C° 0.7 mm 8 m/s 742 mmHg 86%
    08:00 +5°C° 0.7 mm 8 m/s 741 mmHg 87%
    09:00 +5°C° 0.2 mm 8 m/s 741 mmHg 87%
    10:00 +6°C° 0.2 mm 8 m/s 741 mmHg 87%
    11:00 +6°C° 0.2 mm 7 m/s 741 mmHg 87%
    12:00 +6°C° 0.1 mm 7 m/s 741 mmHg 88%
    13:00 +8°C° 0.1 mm 7 m/s 741 mmHg 88%
    14:00 +8°C° 0.1 mm 7 m/s 740 mmHg 88%
    15:00 +8°C° 0.3 mm 7 m/s 740 mmHg 89%
    16:00 +8°C° 0.3 mm 6 m/s 740 mmHg 90%
    17:00 +8°C° 0.3 mm 6 m/s 740 mmHg 91%
    18:00 +9°C° 0.9 mm 5 m/s 740 mmHg 92%
    19:00 +9°C° 0.9 mm 5 m/s 740 mmHg 93%
    20:00 +10°C° 0.9 mm 4 m/s 740 mmHg 94%
    21:00 +10°C° 0.1 mm 4 m/s 740 mmHg 94%
    22:00 +10°C° 0.1 mm 3 m/s 740 mmHg 94%
    23:00 +10°C° 0.1 mm 3 m/s 740 mmHg 95%

    28 Setembro, Sexta-feira

    Tempo Temperatura Precipitação Vento Pressão Humidade
    00:00 +9°C° 0.2 mm 2 m/s 740 mmHg 94%
    01:00 +9°C° 0.2 mm 2 m/s 740 mmHg 93%
    02:00 +9°C° 0.2 mm 2 m/s 740 mmHg 92%
    03:00 +10°C° 0 mm 3 m/s 740 mmHg 92%
    04:00 +10°C° 0 mm 4 m/s 740 mmHg 92%
    05:00 +10°C° 0 mm 4 m/s 740 mmHg 91%
    06:00 +10°C° 0 mm 5 m/s 739 mmHg 90%
    07:00 +10°C° 0 mm 6 m/s 739 mmHg 89%
    08:00 +11°C° 0 mm 7 m/s 738 mmHg 88%
    09:00 +11°C° 0.1 mm 7 m/s 738 mmHg 87%
    10:00 +11°C° 0.1 mm 8 m/s 738 mmHg 85%
    11:00 +12°C° 0.1 mm 8 m/s 738 mmHg 84%
    12:00 +12°C° 0.1 mm 8 m/s 738 mmHg 83%
    13:00 +12°C° 0.1 mm 8 m/s 738 mmHg 82%
    14:00 +13°C° 0.1 mm 8 m/s 738 mmHg 81%
    15:00 +12°C° 0.6 mm 7 m/s 738 mmHg 84%
    16:00 +11°C° 0.6 mm 6 m/s 739 mmHg 86%
    17:00 +10°C° 0.6 mm 5 m/s 739 mmHg 89%
    18:00 +10°C° 0.3 mm 4 m/s 740 mmHg 90%
    19:00 +10°C° 0.3 mm 3 m/s 740 mmHg 91%
    20:00 +9°C° 0.3 mm 2 m/s 741 mmHg 92%
    21:00 +8°C° 0 mm 2 m/s 741 mmHg 92%
    22:00 +7°C° 0 mm 2 m/s 741 mmHg 93%
    23:00 +8°C° 0 mm 1 m/s 742 mmHg 94%

    29 Setembro, Sábado

    Tempo Temperatura Precipitação Vento Pressão Humidade
    00:00 +7°C° 0 mm 1 m/s 742 mmHg 94%
    01:00 +7°C° 0 mm 1 m/s 742 mmHg 94%
    02:00 +6°C° 0 mm 1 m/s 743 mmHg 94%
    03:00 +6°C° 0 mm 1 m/s 743 mmHg 94%
    04:00 +6°C° 0 mm 1 m/s 743 mmHg 94%
    05:00 +6°C° 0 mm 1 m/s 743 mmHg 94%
    06:00 +7°C° 0 mm 1 m/s 743 mmHg 91%
    07:00 +7°C° 0 mm 2 m/s 743 mmHg 88%
    08:00 +8°C° 0 mm 2 m/s 743 mmHg 85%
    09:00 +9°C° 0 mm 2 m/s 743 mmHg 82%
    10:00 +10°C° 0 mm 2 m/s 743 mmHg 79%
    11:00 +12°C° 0 mm 1 m/s 743 mmHg 75%
    12:00 +12°C° 0.3 mm 2 m/s 743 mmHg 75%
    13:00 +12°C° 0.3 mm 2 m/s 743 mmHg 75%
    14:00 +12°C° 0.3 mm 2 m/s 743 mmHg 75%
    15:00 +10°C° 0.3 mm 2 m/s 744 mmHg 78%
    16:00 +10°C° 0.3 mm 3 m/s 744 mmHg 82%
    17:00 +9°C° 0.3 mm 3 m/s 744 mmHg 86%
    18:00 +7°C° 0 mm 4 m/s 745 mmHg 87%
    19:00 +6°C° 0 mm 5 m/s 746 mmHg 88%
    20:00 +5°C° 0 mm 5 m/s 746 mmHg 88%
    21:00 +3°C° 0 mm 5 m/s 747 mmHg 88%
    22:00 +3°C° 0 mm 5 m/s 747 mmHg 87%
    23:00 +2°C° 0 mm 5 m/s 748 mmHg 87%
    Mostrar mais